SAS2874 EKCH-ENBR

Flight info

Callsign SAS2874
Flight time 1h 5m
Altitude 38000
Route GOLGA DCT NIROD DCT PESUR
Aircraft A20N/M-SDE2E3FGHIRWXY/LB1

Departure

Time 2026-05-04 19:36
Airport Copenhagen Kastrup Airport (EKCH)

Arrival

Time 2026-05-04 20:41
Airport Bergen Airport, Flesland (ENBR)
Time Latitude Longitude Altitude Speed Heading
2026-05-04 18:53 55.62783 12.64155 17 ft 0 kts 123°
2026-05-04 19:21 55.62792 12.64130 17 ft 4 kts 123°
2026-05-04 19:21 55.62806 12.64090 19 ft 4 kts 118°
2026-05-04 19:22 55.62816 12.64053 17 ft 4 kts 105°
2026-05-04 19:22 55.62815 12.64013 17 ft 4 kts 48°
2026-05-04 19:22 55.62795 12.63983 19 ft 2 kts 37°
2026-05-04 19:22 55.62779 12.63959 17 ft 4 kts 65°
2026-05-04 19:23 55.62777 12.63915 17 ft 4 kts 111°
2026-05-04 19:23 55.62789 12.63873 17 ft 3 kts 116°
2026-05-04 19:23 55.62790 12.63868 17 ft 0 kts 115°
2026-05-04 19:26 55.62781 12.63904 18 ft 8 kts 115°
2026-05-04 19:26 55.62738 12.63914 18 ft 8 kts 215°
2026-05-04 19:27 55.62687 12.63953 19 ft 10 kts 124°
2026-05-04 19:27 55.62644 12.64083 18 ft 14 kts 124°
2026-05-04 19:27 55.62582 12.64240 17 ft 17 kts 120°
2026-05-04 19:27 55.62539 12.64359 17 ft 11 kts 123°
2026-05-04 19:28 55.62499 12.64464 17 ft 9 kts 128°
2026-05-04 19:28 55.62445 12.64475 17 ft 8 kts 200°
2026-05-04 19:28 55.62382 12.64446 17 ft 8 kts 194°
2026-05-04 19:28 55.62316 12.64416 17 ft 12 kts 194°
2026-05-04 19:29 55.62224 12.64370 15 ft 14 kts 202°
2026-05-04 19:29 55.62149 12.64303 16 ft 13 kts 205°
2026-05-04 19:29 55.62059 12.64229 18 ft 16 kts 205°
2026-05-04 19:29 55.61978 12.64161 17 ft 10 kts 205°
2026-05-04 19:30 55.61902 12.64097 17 ft 14 kts 204°
2026-05-04 19:30 55.61843 12.64031 17 ft 7 kts 219°
2026-05-04 19:30 55.61797 12.63960 18 ft 10 kts 222°
2026-05-04 19:30 55.61735 12.63865 19 ft 12 kts 220°
2026-05-04 19:31 55.61676 12.63801 19 ft 8 kts 187°
2026-05-04 19:31 55.61625 12.63808 17 ft 6 kts 171°
2026-05-04 19:31 55.61611 12.63810 17 ft 3 kts 175°
2026-05-04 19:31 55.61610 12.63810 17 ft 0 kts 176°
2026-05-04 19:34 55.61608 12.63811 17 ft 2 kts 176°
2026-05-04 19:34 55.61570 12.63815 18 ft 10 kts 176°
2026-05-04 19:34 55.61494 12.63825 21 ft 11 kts 176°
2026-05-04 19:34 55.61449 12.63801 18 ft 0 kts 219°
2026-05-04 19:35 55.61443 12.63792 18 ft 5 kts 221°
2026-05-04 19:35 55.61282 12.63539 20 ft 66 kts 222°
2026-05-04 19:35 55.60768 12.62748 20 ft 126 kts 221°
2026-05-04 19:35 55.60004 12.61571 158 ft 155 kts 222°
2026-05-04 19:36 55.59196 12.60342 746 ft 153 kts 223°
2026-05-04 19:36 55.58389 12.59095 1384 ft 153 kts 224°
2026-05-04 19:36 55.57574 12.57830 1920 ft 162 kts 224°
2026-05-04 19:36 55.56692 12.56461 2307 ft 179 kts 225°
2026-05-04 19:37 55.55947 12.54631 2669 ft 192 kts 255°
2026-05-04 19:37 55.55899 12.52224 3100 ft 204 kts 281°
2026-05-04 19:37 55.56157 12.49619 3606 ft 224 kts 281°
2026-05-04 19:37 55.56444 12.46771 4251 ft 244 kts 281°
2026-05-04 19:38 55.56741 12.43780 5276 ft 249 kts 281°
2026-05-04 19:38 55.57040 12.40742 6355 ft 252 kts 280°
2026-05-04 19:38 55.57343 12.37666 7399 ft 257 kts 280°
2026-05-04 19:38 55.57801 12.34653 8443 ft 261 kts 295°
2026-05-04 19:39 55.58932 12.32091 9427 ft 269 kts 315°
2026-05-04 19:39 55.60142 12.29586 10372 ft 272 kts 296°
2026-05-04 19:39 55.60809 12.26354 10885 ft 291 kts 285°
2026-05-04 19:39 55.61525 12.22855 11327 ft 314 kts 297°
2026-05-04 19:40 55.62969 12.19874 12130 ft 328 kts 319°
2026-05-04 19:40 55.65009 12.17925 13017 ft 338 kts 332°
2026-05-04 19:40 55.67224 12.16402 13906 ft 344 kts 335°
2026-05-04 19:40 55.69484 12.14947 14748 ft 348 kts 335°
2026-05-04 19:41 55.70999 12.13960 15293 ft 351 kts 334°
2026-05-04 19:41 55.73292 12.12424 16113 ft 354 kts 333°
2026-05-04 19:41 55.76351 12.10312 17119 ft 359 kts 333°
2026-05-04 19:41 55.78690 12.08669 17858 ft 363 kts 333°
2026-05-04 19:42 55.81048 12.07004 18598 ft 366 kts 332°
2026-05-04 19:42 55.82650 12.05870 19069 ft 369 kts 333°
2026-05-04 19:42 55.85054 12.04166 19742 ft 373 kts 333°
2026-05-04 19:42 55.87475 12.02447 20428 ft 377 kts 333°
2026-05-04 19:43 55.89886 12.00734 21065 ft 381 kts 333°
2026-05-04 19:43 55.92371 11.98965 21705 ft 384 kts 333°
2026-05-04 19:43 55.94870 11.97184 22344 ft 388 kts 333°
2026-05-04 19:43 55.97386 11.95388 22926 ft 392 kts 333°
2026-05-04 19:44 55.99927 11.93574 23504 ft 396 kts 333°
2026-05-04 19:44 56.02403 11.91501 24094 ft 393 kts 325°
2026-05-04 19:44 56.04789 11.89012 24623 ft 397 kts 325°
2026-05-04 19:44 56.07190 11.86478 25143 ft 401 kts 325°
2026-05-04 19:45 56.09605 11.83925 25633 ft 405 kts 325°
2026-05-04 19:45 56.12047 11.81343 26105 ft 409 kts 325°
2026-05-04 19:45 56.14514 11.78735 26576 ft 413 kts 326°
2026-05-04 19:45 56.16967 11.76140 27023 ft 416 kts 326°
2026-05-04 19:46 56.19468 11.73493 27467 ft 419 kts 326°
2026-05-04 19:46 56.21993 11.70818 27894 ft 422 kts 326°
2026-05-04 19:46 56.24537 11.68119 28302 ft 425 kts 326°
2026-05-04 19:46 56.27092 11.65404 28680 ft 428 kts 326°
2026-05-04 19:47 56.29667 11.62662 29063 ft 431 kts 326°
2026-05-04 19:47 56.32262 11.59896 29426 ft 434 kts 326°
2026-05-04 19:47 56.34871 11.57110 29787 ft 436 kts 326°
2026-05-04 19:47 56.37487 11.54312 30147 ft 439 kts 326°
2026-05-04 19:48 56.40123 11.51488 30501 ft 441 kts 326°
2026-05-04 19:48 56.42730 11.48692 30930 ft 442 kts 326°
2026-05-04 19:48 56.45370 11.45856 31356 ft 442 kts 326°
2026-05-04 19:48 56.48012 11.43013 31855 ft 440 kts 326°
2026-05-04 19:49 56.50639 11.40182 32347 ft 438 kts 326°
2026-05-04 19:49 56.53255 11.37358 32803 ft 436 kts 326°
2026-05-04 19:49 56.55851 11.34551 33283 ft 434 kts 325°
2026-05-04 19:49 56.58440 11.31747 33727 ft 432 kts 325°
2026-05-04 19:50 56.61015 11.28954 34156 ft 430 kts 325°
2026-05-04 19:50 56.63581 11.26165 34514 ft 430 kts 325°
2026-05-04 19:50 56.66146 11.23372 34838 ft 430 kts 325°
2026-05-04 19:50 56.68713 11.20572 35148 ft 430 kts 324°
2026-05-04 19:51 56.71275 11.17773 35456 ft 430 kts 324°
2026-05-04 19:51 56.73835 11.14973 35753 ft 430 kts 324°
2026-05-04 19:51 56.76404 11.12158 36063 ft 430 kts 324°
2026-05-04 19:51 56.78962 11.09351 36334 ft 430 kts 324°
2026-05-04 19:52 56.81529 11.06528 36567 ft 430 kts 324°
2026-05-04 19:52 56.84068 11.03731 36841 ft 430 kts 324°
2026-05-04 19:52 56.86618 11.00920 37185 ft 427 kts 324°
2026-05-04 19:52 56.89149 10.98127 37544 ft 424 kts 324°
2026-05-04 19:53 56.91674 10.95333 37786 ft 423 kts 324°
2026-05-04 19:53 56.96711 10.89742 37939 ft 423 kts 323°
2026-05-04 19:54 57.01738 10.84147 37937 ft 422 kts 323°
2026-05-04 19:54 57.06757 10.78543 37934 ft 421 kts 323°
2026-05-04 19:55 57.11762 10.72937 37935 ft 421 kts 323°
2026-05-04 19:55 57.16733 10.67351 37926 ft 421 kts 323°
2026-05-04 19:56 57.21727 10.61722 37922 ft 420 kts 323°
2026-05-04 19:56 57.26722 10.56072 37929 ft 420 kts 323°
2026-05-04 19:57 57.31704 10.50423 37927 ft 419 kts 323°
2026-05-04 19:57 57.36676 10.44763 37928 ft 419 kts 323°
2026-05-04 19:58 57.41615 10.39124 37930 ft 419 kts 323°
2026-05-04 19:58 57.46570 10.33448 37930 ft 418 kts 323°
2026-05-04 19:59 57.51517 10.27763 37933 ft 417 kts 322°
2026-05-04 19:59 57.56450 10.22077 37935 ft 416 kts 322°
2026-05-04 20:00 57.61370 10.16387 37929 ft 416 kts 322°
2026-05-04 20:00 57.66279 10.10691 37923 ft 415 kts 322°
2026-05-04 20:01 57.71175 10.04991 37913 ft 414 kts 322°
2026-05-04 20:01 57.76064 9.99281 37909 ft 413 kts 322°
2026-05-04 20:02 57.80909 9.93605 37899 ft 413 kts 322°
2026-05-04 20:02 57.85779 9.87880 37896 ft 412 kts 322°
2026-05-04 20:03 57.90640 9.82148 37891 ft 412 kts 322°
2026-05-04 20:03 57.95496 9.76401 37887 ft 412 kts 322°
2026-05-04 20:04 58.00351 9.70638 37882 ft 412 kts 322°
2026-05-04 20:04 58.05183 9.64807 37876 ft 410 kts 319°
2026-05-04 20:05 58.09589 9.58073 37876 ft 405 kts 311°
2026-05-04 20:05 58.13530 9.50491 37876 ft 404 kts 309°
2026-05-04 20:06 58.17454 9.42883 37884 ft 404 kts 309°
2026-05-04 20:06 58.21349 9.35277 37883 ft 404 kts 309°
2026-05-04 20:07 58.25253 9.27591 37872 ft 404 kts 309°
2026-05-04 20:07 58.29152 9.19876 37879 ft 405 kts 309°
2026-05-04 20:08 58.33044 9.12150 37867 ft 405 kts 309°
2026-05-04 20:08 58.36939 9.04391 37870 ft 405 kts 308°
2026-05-04 20:09 58.40828 8.96619 37874 ft 405 kts 308°
2026-05-04 20:09 58.44714 8.88827 37878 ft 405 kts 308°
2026-05-04 20:10 58.48591 8.81024 37871 ft 405 kts 308°
2026-05-04 20:10 58.52443 8.73247 37867 ft 405 kts 308°
2026-05-04 20:11 58.56314 8.65404 37876 ft 405 kts 308°
2026-05-04 20:11 58.60179 8.57546 37875 ft 405 kts 308°
2026-05-04 20:12 58.64039 8.49670 37865 ft 405 kts 308°
2026-05-04 20:12 58.67889 8.41789 37872 ft 405 kts 308°
2026-05-04 20:13 58.71714 8.33931 37869 ft 405 kts 308°
2026-05-04 20:13 58.75562 8.25997 37881 ft 405 kts 308°
2026-05-04 20:14 58.79409 8.18040 37867 ft 405 kts 308°
2026-05-04 20:14 58.83245 8.10078 37879 ft 404 kts 308°
2026-05-04 20:15 58.87049 8.02152 37885 ft 404 kts 308°
2026-05-04 20:15 58.88961 7.98158 37737 ft 404 kts 308°
2026-05-04 20:15 58.90870 7.94166 37489 ft 404 kts 307°
2026-05-04 20:15 58.92778 7.90167 37232 ft 403 kts 307°
2026-05-04 20:16 58.94676 7.86185 36957 ft 402 kts 307°
2026-05-04 20:16 58.96577 7.82184 36340 ft 404 kts 307°
2026-05-04 20:16 58.98485 7.78160 35601 ft 406 kts 307°
2026-05-04 20:16 59.00368 7.74188 34973 ft 404 kts 307°
2026-05-04 20:17 59.02270 7.70169 34312 ft 403 kts 307°
2026-05-04 20:17 59.04169 7.66145 33537 ft 404 kts 307°
2026-05-04 20:17 59.06067 7.62119 32806 ft 404 kts 307°
2026-05-04 20:17 59.07962 7.58093 32016 ft 405 kts 307°
2026-05-04 20:18 59.09865 7.54041 31284 ft 404 kts 307°
2026-05-04 20:18 59.11752 7.50020 30739 ft 398 kts 306°
2026-05-04 20:18 59.13606 7.46067 30201 ft 392 kts 306°
2026-05-04 20:18 59.15430 7.42170 29664 ft 385 kts 306°
2026-05-04 20:19 59.17197 7.38382 29144 ft 380 kts 306°
2026-05-04 20:19 59.18961 7.34593 28629 ft 374 kts 306°
2026-05-04 20:19 59.20694 7.30865 28118 ft 369 kts 306°
2026-05-04 20:19 59.22411 7.27166 27620 ft 364 kts 305°
2026-05-04 20:20 59.24096 7.23531 27126 ft 358 kts 305°
2026-05-04 20:20 59.25755 7.19947 26640 ft 353 kts 305°
2026-05-04 20:20 59.27389 7.16415 26161 ft 347 kts 305°
2026-05-04 20:20 59.28998 7.12930 25685 ft 341 kts 304°
2026-05-04 20:21 59.30553 7.09552 25219 ft 336 kts 304°
2026-05-04 20:21 59.32111 7.06160 24761 ft 337 kts 304°
2026-05-04 20:21 59.35432 6.98858 23751 ft 370 kts 305°
2026-05-04 20:22 59.37160 6.95091 23219 ft 370 kts 305°
2026-05-04 20:22 59.38873 6.91363 22699 ft 365 kts 305°
2026-05-04 20:22 59.40558 6.87691 22176 ft 358 kts 305°
2026-05-04 20:22 59.42206 6.84086 21667 ft 351 kts 304°
2026-05-04 20:23 59.43818 6.80547 21153 ft 344 kts 304°
2026-05-04 20:23 59.45394 6.77077 20676 ft 338 kts 304°
2026-05-04 20:23 59.46946 6.73650 20188 ft 331 kts 304°
2026-05-04 20:23 59.48434 6.70356 19721 ft 326 kts 304°
2026-05-04 20:24 59.49959 6.66980 19254 ft 320 kts 304°
2026-05-04 20:24 59.51423 6.63731 18779 ft 316 kts 304°
2026-05-04 20:24 59.52855 6.60553 18319 ft 310 kts 304°
2026-05-04 20:24 59.54273 6.57403 17869 ft 304 kts 303°
2026-05-04 20:25 59.55668 6.54300 17417 ft 300 kts 303°
2026-05-04 20:25 59.57039 6.51240 16962 ft 295 kts 304°
2026-05-04 20:25 59.58391 6.48223 16538 ft 291 kts 303°
2026-05-04 20:25 59.59719 6.45255 16117 ft 286 kts 303°
2026-05-04 20:26 59.61026 6.42327 15700 ft 282 kts 304°
2026-05-04 20:26 59.62354 6.39329 15255 ft 303 kts 304°
2026-05-04 20:26 59.63776 6.36101 14790 ft 317 kts 304°
2026-05-04 20:26 59.65238 6.32810 14318 ft 319 kts 305°
2026-05-04 20:27 59.66685 6.29572 13971 ft 311 kts 305°
2026-05-04 20:27 59.68104 6.26386 13295 ft 311 kts 305°
2026-05-04 20:27 59.69512 6.23216 12922 ft 304 kts 305°
2026-05-04 20:27 59.70885 6.20128 12484 ft 294 kts 305°
2026-05-04 20:28 59.72219 6.17124 12052 ft 287 kts 305°
2026-05-04 20:28 59.73527 6.14168 11616 ft 282 kts 305°
2026-05-04 20:28 59.74805 6.11266 11215 ft 278 kts 305°
2026-05-04 20:28 59.76065 6.08400 10803 ft 273 kts 306°
2026-05-04 20:29 59.77303 6.05586 10397 ft 269 kts 306°
2026-05-04 20:29 59.78516 6.02834 10215 ft 259 kts 307°
2026-05-04 20:29 59.79693 6.00163 9931 ft 255 kts 307°
2026-05-04 20:29 59.80836 5.97553 9774 ft 249 kts 307°
2026-05-04 20:30 59.81600 5.95793 9682 ft 254 kts 306°
2026-05-04 20:30 59.82767 5.93105 9563 ft 257 kts 307°
2026-05-04 20:30 59.83932 5.90434 9429 ft 256 kts 306°
2026-05-04 20:30 59.85104 5.87747 9164 ft 259 kts 307°
2026-05-04 20:31 59.86285 5.85032 8812 ft 259 kts 308°
2026-05-04 20:31 59.87461 5.82329 8467 ft 257 kts 308°
2026-05-04 20:31 59.88630 5.79655 8145 ft 254 kts 308°
2026-05-04 20:31 59.89787 5.77000 7803 ft 253 kts 308°
2026-05-04 20:32 59.90931 5.74365 7466 ft 250 kts 308°
2026-05-04 20:32 59.92045 5.71792 7139 ft 247 kts 308°
2026-05-04 20:32 59.93162 5.69206 6809 ft 244 kts 308°
2026-05-04 20:32 59.94267 5.66652 6484 ft 242 kts 308°
2026-05-04 20:33 59.95363 5.64122 6162 ft 239 kts 308°
2026-05-04 20:33 59.96442 5.61624 5845 ft 236 kts 308°
2026-05-04 20:33 59.97514 5.59138 5522 ft 235 kts 308°
2026-05-04 20:33 59.98572 5.56680 5203 ft 233 kts 308°
2026-05-04 20:34 59.99630 5.54226 4883 ft 233 kts 309°
2026-05-04 20:34 60.00673 5.51800 4571 ft 233 kts 309°
2026-05-04 20:34 60.01745 5.49313 4231 ft 233 kts 309°
2026-05-04 20:34 60.02799 5.46862 3925 ft 232 kts 309°
2026-05-04 20:35 60.03831 5.44445 3622 ft 231 kts 309°
2026-05-04 20:35 60.04855 5.42052 3312 ft 229 kts 309°
2026-05-04 20:35 60.05902 5.39604 3106 ft 226 kts 309°
2026-05-04 20:35 60.06967 5.37118 3026 ft 235 kts 309°
2026-05-04 20:36 60.07990 5.34735 2991 ft 216 kts 309°
2026-05-04 20:36 60.08917 5.32564 2990 ft 193 kts 309°
2026-05-04 20:36 60.09742 5.30631 2994 ft 173 kts 309°
2026-05-04 20:36 60.10548 5.28988 2998 ft 159 kts 322°
2026-05-04 20:37 60.11519 5.27962 3018 ft 163 kts 338°
2026-05-04 20:37 60.12603 5.27398 3006 ft 161 kts 346°
2026-05-04 20:37 60.13714 5.27030 2983 ft 162 kts 348°
2026-05-04 20:37 60.14824 5.26661 2826 ft 160 kts 347°
2026-05-04 20:38 60.15909 5.26301 2612 ft 156 kts 348°
2026-05-04 20:38 60.16944 5.25957 2401 ft 146 kts 348°
2026-05-04 20:38 60.17906 5.25640 2214 ft 136 kts 348°
2026-05-04 20:38 60.18855 5.25323 2033 ft 138 kts 348°
2026-05-04 20:39 60.19798 5.25003 1852 ft 137 kts 348°
2026-05-04 20:39 60.20725 5.24695 1677 ft 137 kts 349°
2026-05-04 20:39 60.21665 5.24379 1486 ft 137 kts 349°
2026-05-04 20:39 60.22603 5.24067 1308 ft 137 kts 349°
2026-05-04 20:40 60.23548 5.23751 1125 ft 137 kts 350°
2026-05-04 20:40 60.24486 5.23437 945 ft 137 kts 350°
2026-05-04 20:40 60.25423 5.23124 762 ft 136 kts 350°
2026-05-04 20:40 60.26355 5.22812 581 ft 136 kts 350°
2026-05-04 20:41 60.27288 5.22507 397 ft 135 kts 350°
2026-05-04 20:41 60.28223 5.22196 207 ft 136 kts 349°
2026-05-04 20:41 60.29097 5.21901 161 ft 101 kts 352°
2026-05-04 20:41 60.29538 5.21744 148 ft 39 kts 352°
2026-05-04 20:42 60.29666 5.21714 149 ft 11 kts
2026-05-04 20:42 60.29711 5.21828 148 ft 12 kts 83°
2026-05-04 20:42 60.29723 5.21994 147 ft 8 kts 79°
2026-05-04 20:42 60.29730 5.22065 148 ft 6 kts 78°
2026-05-04 20:43 60.29701 5.22141 147 ft 10 kts 165°
2026-05-04 20:43 60.29619 5.22165 148 ft 13 kts 171°
2026-05-04 20:43 60.29535 5.22194 154 ft 11 kts 169°
2026-05-04 20:43 60.29459 5.22220 157 ft 11 kts 170°
2026-05-04 20:44 60.29381 5.22247 161 ft 11 kts 170°
2026-05-04 20:44 60.29298 5.22276 164 ft 13 kts 171°
2026-05-04 20:44 60.29203 5.22308 166 ft 15 kts 169°
2026-05-04 20:44 60.29095 5.22342 166 ft 18 kts 169°
2026-05-04 20:45 60.28994 5.22379 166 ft 11 kts 169°
2026-05-04 20:45 60.28905 5.22408 166 ft 14 kts 174°
2026-05-04 20:45 60.28819 5.22438 166 ft 0 kts 159°
2026-05-04 20:45 60.28819 5.22442 167 ft 1 kts 137°
2026-05-04 20:46 60.28823 5.22454 167 ft 1 kts 60°
2026-05-04 20:46 60.28836 5.22490 169 ft 5 kts 58°
2026-05-04 20:46 60.28851 5.22543 173 ft 0 kts 60°
2026-05-04 20:46 60.28857 5.22563 173 ft 1 kts 60°
2026-05-04 20:47 60.28860 5.22572 173 ft 0 kts 60°